Time,TemperatureF,DewpointF,PressureIn,WindDirection,WindDirectionDegrees,WindSpeedMPH,WindSpeedGustMPH,Humidity,HourlyPrecipIn,Conditions,Clouds,dailyrainin,SoftwareType,DateUTC
2013-07-19 00:44:00,78.0,78.0,29.97,SW,225,0.0,0.0,100,0.00,,,0.00,,2013-07-19 04:44:00,
2013-07-19 00:52:00,78.0,78.0,29.97,West,270,1.0,5.0,100,0.00,,,0.00,,2013-07-19 04:52:00,
2013-07-19 01:53:00,77.0,77.0,29.97,WSW,247,3.0,5.0,100,0.00,,,0.00,,2013-07-19 05:53:00,
2013-07-19 02:01:00,77.0,77.0,29.96,West,270,3.0,3.0,100,0.00,,,0.00,,2013-07-19 06:01:00,
2013-07-19 02:11:00,77.0,77.0,29.97,WSW,247,0.0,0.0,100,0.00,,,0.00,,2013-07-19 06:11:00,
2013-07-19 02:22:00,77.0,77.0,29.96,WSW,247,1.0,0.0,100,0.00,,,0.00,,2013-07-19 06:22:00,
2013-07-19 02:33:00,77.0,77.0,29.97,WSW,247,2.0,5.0,100,0.00,,,0.00,,2013-07-19 06:33:00,
2013-07-19 02:43:00,77.0,77.0,29.96,WSW,247,1.0,0.0,100,0.00,,,0.00,,2013-07-19 06:43:00,
2013-07-19 02:52:00,76.0,76.0,29.96,WSW,247,0.0,3.0,100,0.00,,,0.00,,2013-07-19 06:52:00,
2013-07-19 03:01:00,76.0,76.0,29.96,WSW,247,0.0,0.0,100,0.00,,,0.00,,2013-07-19 07:01:00,
2013-07-19 03:32:00,76.0,76.0,29.95,SW,225,1.0,3.0,100,0.00,,,0.00,,2013-07-19 07:32:00,
2013-07-19 03:43:00,76.0,76.0,29.95,WSW,247,1.0,4.0,100,0.00,,,0.00,,2013-07-19 07:43:00,
2013-07-19 03:53:00,76.0,76.0,29.94,West,270,2.0,3.0,100,0.00,,,0.00,,2013-07-19 07:53:00,
2013-07-19 04:01:00,75.0,75.0,29.94,West,270,0.0,6.0,100,0.00,,,0.00,,2013-07-19 08:01:00,
2013-07-19 04:11:00,75.0,75.0,29.94,WSW,247,1.0,0.0,100,0.00,,,0.00,,2013-07-19 08:11:00,
2013-07-19 04:22:00,75.0,75.0,29.94,West,270,1.0,3.0,100,0.00,,,0.00,,2013-07-19 08:22:00,
2013-07-19 04:33:00,75.0,75.0,29.95,WSW,247,1.0,0.0,100,0.00,,,0.00,,2013-07-19 08:33:00,
2013-07-19 04:43:00,75.0,75.0,29.93,WSW,247,4.0,7.0,100,0.00,,,0.00,,2013-07-19 08:43:00,
2013-07-19 04:52:00,75.0,75.0,29.93,WSW,247,3.0,6.0,100,0.00,,,0.00,,2013-07-19 08:52:00,
2013-07-19 05:02:00,75.0,75.0,29.93,WSW,247,3.0,6.0,100,0.00,,,0.00,,2013-07-19 09:02:00,
2013-07-19 06:43:00,74.0,74.0,29.94,SW,225,2.0,4.0,100,0.00,,,0.00,,2013-07-19 10:43:00,
2013-07-19 07:43:00,75.0,75.0,29.93,WSW,247,4.0,4.0,100,0.00,,,0.00,,2013-07-19 11:43:00,
2013-07-19 08:43:00,78.0,78.0,29.89,WSW,247,4.0,9.0,100,0.00,,,0.00,,2013-07-19 12:43:00,
2013-07-19 10:43:00,85.0,79.0,29.85,West,270,6.0,13.0,83,0.00,,,0.00,,2013-07-19 14:43:00,
2013-07-19 10:52:00,85.0,79.0,29.85,WSW,247,7.0,14.0,82,0.00,,,0.00,,2013-07-19 14:52:00,
2013-07-19 11:32:00,87.0,78.0,29.83,West,270,5.0,16.0,75,0.00,,,0.00,,2013-07-19 15:32:00,
2013-07-19 11:43:00,87.0,78.0,29.85,WSW,247,4.0,12.0,76,0.00,,,0.00,,2013-07-19 15:43:00,
2013-07-19 11:52:00,88.0,78.0,29.85,WSW,247,5.0,14.0,72,0.00,,,0.00,,2013-07-19 15:52:00,
2013-07-19 12:52:00,89.0,77.0,29.83,WSW,247,3.0,8.0,69,0.00,,,0.00,,2013-07-19 16:52:00,
2013-07-19 13:02:00,89.0,77.0,29.82,West,270,5.0,10.0,68,0.00,,,0.00,,2013-07-19 17:02:00,
2013-07-19 13:32:00,89.0,76.0,29.83,SW,225,7.0,17.0,66,0.00,,,0.00,,2013-07-19 17:32:00,
2013-07-19 13:43:00,90.0,78.0,29.81,SW,225,3.0,5.0,67,0.00,,,0.00,,2013-07-19 17:43:00,
2013-07-19 13:52:00,90.0,77.0,29.80,SW,225,4.0,11.0,65,0.00,,,0.00,,2013-07-19 17:52:00,
2013-07-19 16:43:00,91.0,77.0,29.72,WSW,247,8.0,13.0,63,0.00,,,0.00,,2013-07-19 20:43:00,
2013-07-19 18:42:00,89.0,77.0,29.72,West,270,5.0,12.0,67,0.00,,,0.00,,2013-07-19 22:42:00,
2013-07-19 18:52:00,89.0,77.0,29.72,WSW,247,7.0,8.0,67,0.00,,,0.00,,2013-07-19 22:52:00,
2013-07-19 19:43:00,88.0,77.0,29.72,WSW,247,6.0,6.0,71,0.00,,,0.00,,2013-07-19 23:43:00,
2013-07-19 19:52:00,87.0,77.0,29.71,West,270,6.0,11.0,73,0.00,,,0.00,,2013-07-19 23:52:00,
2013-07-19 20:01:00,87.0,78.0,29.72,SW,225,4.0,8.0,76,0.00,,,0.00,,2013-07-20 00:01:00,
2013-07-19 20:11:00,87.0,79.0,29.72,WSW,247,5.0,10.0,77,0.00,,,0.00,,2013-07-20 00:11:00,
2013-07-19 20:22:00,86.0,79.0,29.75,West,270,5.0,6.0,80,0.00,,,0.00,,2013-07-20 00:22:00,
2013-07-19 20:43:00,85.0,79.0,29.75,WSW,247,4.0,7.0,83,0.00,,,0.00,,2013-07-20 00:43:00,
2013-07-19 21:32:00,83.0,80.0,29.76,WSW,247,5.0,10.0,90,0.00,,,0.00,,2013-07-20 01:32:00,
2013-07-19 22:02:00,82.0,80.0,29.75,WSW,247,4.0,11.0,93,0.00,,,0.00,,2013-07-20 02:02:00,
2013-07-19 22:33:00,82.0,80.0,29.77,SW,225,5.0,12.0,94,0.00,,,0.00,,2013-07-20 02:33:00,
2013-07-19 22:43:00,81.0,79.0,29.75,SW,225,4.0,10.0,95,0.00,,,0.00,,2013-07-20 02:43:00,